• In Russia
  • List of Countries
  • For 7 days
  • Water Temperature
  • Satellite Maps
  • Weather Map
  • Weather Widgets
  • user-avatar
    Login

    Hourly Weather Baku

    Today, 24 January, Tuesday

    Time Temperature Precipitation Wind Pressure Humidity
    00:00 +3°C° 0 mm 1 mps 773 mmHg 79%
    01:00 +4°C° 0 mm 1 mps 773 mmHg 78%
    02:00 +3°C° 0 mm 2 mps 773 mmHg 77%
    03:00 +3°C° 0 mm 2 mps 773 mmHg 75%
    04:00 +3°C° 0 mm 2 mps 773 mmHg 73%
    05:00 +2°C° 0 mm 3 mps 773 mmHg 70%
    06:00 +1°C° 0 mm 4 mps 773 mmHg 67%
    07:00 +2°C° 0 mm 5 mps 773 mmHg 64%
    08:00 +3°C° 0 mm 6 mps 773 mmHg 62%
    09:00 +4°C° 0 mm 7 mps 773 mmHg 58%
    10:00 +5°C° 0 mm 8 mps 772 mmHg 55%
    11:00 +6°C° 0 mm 8 mps 772 mmHg 52%
    12:00 +7°C° 0 mm 9 mps 772 mmHg 49%
    13:00 +7°C° 0 mm 9 mps 771 mmHg 49%
    14:00 +7°C° 0 mm 9 mps 770 mmHg 49%
    15:00 +7°C° 0 mm 9 mps 770 mmHg 50%
    16:00 +6°C° 0 mm 9 mps 769 mmHg 56%
    17:00 +5°C° 0 mm 9 mps 769 mmHg 62%
    18:00 +3°C° 0 mm 9 mps 769 mmHg 68%
    19:00 +3°C° 0 mm 9 mps 768 mmHg 70%
    20:00 +3°C° 0 mm 10 mps 768 mmHg 72%
    21:00 +3°C° 0 mm 10 mps 767 mmHg 74%
    22:00 +3°C° 0 mm 10 mps 766 mmHg 75%
    23:00 +3°C° 0 mm 10 mps 765 mmHg 76%

    Tomorrow, 25 January, Wednesday

    Time Temperature Precipitation Wind Pressure Humidity
    00:00 +3°C° 0 mm 10 mps 765 mmHg 76%
    01:00 +3°C° 0 mm 10 mps 764 mmHg 74%
    02:00 +2°C° 0 mm 10 mps 763 mmHg 72%
    03:00 +2°C° 0 mm 10 mps 763 mmHg 70%
    04:00 +2°C° 0 mm 10 mps 762 mmHg 66%
    05:00 +2°C° 0 mm 10 mps 762 mmHg 61%
    06:00 +2°C° 0 mm 10 mps 761 mmHg 56%
    07:00 +2°C° 0 mm 9 mps 761 mmHg 52%
    08:00 +3°C° 0 mm 9 mps 761 mmHg 48%
    09:00 +3°C° 0 mm 9 mps 761 mmHg 44%
    10:00 +6°C° 0 mm 8 mps 761 mmHg 40%
    11:00 +8°C° 0 mm 7 mps 760 mmHg 35%
    12:00 +9°C° 0 mm 7 mps 760 mmHg 30%
    13:00 +9°C° 0 mm 6 mps 760 mmHg 35%
    14:00 +9°C° 0 mm 5 mps 759 mmHg 41%
    15:00 +8°C° 0 mm 4 mps 759 mmHg 46%
    16:00 +7°C° 0 mm 4 mps 759 mmHg 56%
    17:00 +6°C° 0 mm 4 mps 759 mmHg 67%
    18:00 +5°C° 0 mm 3 mps 759 mmHg 77%
    19:00 +4°C° 0 mm 3 mps 759 mmHg 79%
    20:00 +4°C° 0 mm 3 mps 759 mmHg 80%
    21:00 +4°C° 0 mm 2 mps 759 mmHg 82%
    22:00 +4°C° 0 mm 2 mps 758 mmHg 81%
    23:00 +4°C° 0 mm 2 mps 758 mmHg 80%

    Day after tomorrow, 26 January, Thursday

    Time Temperature Precipitation Wind Pressure Humidity
    00:00 +4°C° 0 mm 2 mps 758 mmHg 79%
    01:00 +4°C° 0 mm 2 mps 758 mmHg 77%
    02:00 +4°C° 0 mm 2 mps 757 mmHg 75%
    03:00 +4°C° 0 mm 2 mps 757 mmHg 74%
    04:00 +4°C° 0 mm 2 mps 757 mmHg 74%
    05:00 +5°C° 0 mm 1 mps 757 mmHg 74%
    06:00 +5°C° 0 mm 1 mps 757 mmHg 74%
    07:00 +5°C° 0 mm 1 mps 758 mmHg 72%
    08:00 +5°C° 0 mm 2 mps 758 mmHg 71%
    09:00 +6°C° 0 mm 2 mps 758 mmHg 69%
    10:00 +7°C° 0 mm 2 mps 759 mmHg 69%
    11:00 +7°C° 0 mm 3 mps 759 mmHg 68%
    12:00 +7°C° 0 mm 3 mps 759 mmHg 68%
    13:00 +6°C° 0 mm 4 mps 759 mmHg 69%
    14:00 +6°C° 0 mm 5 mps 759 mmHg 70%
    15:00 +5°C° 0 mm 6 mps 759 mmHg 71%
    16:00 +4°C° 0 mm 7 mps 759 mmHg 75%
    17:00 +4°C° 0 mm 7 mps 760 mmHg 78%
    18:00 +4°C° 0 mm 8 mps 760 mmHg 82%
    19:00 +2°C° 0 mm 8 mps 760 mmHg 82%
    20:00 +2°C° 0 mm 9 mps 761 mmHg 83%
    21:00 +2°C° 0 mm 9 mps 761 mmHg 83%
    22:00 +2°C° 0 mm 9 mps 762 mmHg 83%
    23:00 +2°C° 0 mm 9 mps 762 mmHg 82%

    27 January, Friday

    Time Temperature Precipitation Wind Pressure Humidity
    00:00 +2°C° 0 mm 9 mps 762 mmHg 82%
    01:00 +2°C° 0 mm 9 mps 762 mmHg 83%
    02:00 +2°C° 0 mm 9 mps 763 mmHg 83%
    03:00 +1°C° 0 mm 9 mps 763 mmHg 84%
    04:00 +1°C° 0.1 mm 9 mps 763 mmHg 84%
    05:00 +1°C° 0.1 mm 9 mps 763 mmHg 83%
    06:00 +2°C° 0.1 mm 9 mps 764 mmHg 82%
    07:00 +2°C° 0.1 mm 9 mps 764 mmHg 81%
    08:00 +2°C° 0.1 mm 9 mps 765 mmHg 80%
    09:00 +2°C° 0.1 mm 9 mps 765 mmHg 79%
    10:00 +2°C° 0.1 mm 9 mps 765 mmHg 78%
    11:00 +2°C° 0.1 mm 9 mps 765 mmHg 76%
    12:00 +2°C° 0.1 mm 9 mps 764 mmHg 75%
    13:00 +2°C° 0.1 mm 9 mps 764 mmHg 76%
    14:00 +2°C° 0.1 mm 9 mps 764 mmHg 76%
    15:00 +2°C° 0.1 mm 9 mps 763 mmHg 77%
    16:00 +1°C° 0.1 mm 8 mps 764 mmHg 78%
    17:00 +1°C° 0.1 mm 8 mps 764 mmHg 78%
    18:00 +1°C° 0.1 mm 8 mps 764 mmHg 79%
    19:00 +1°C° 0.1 mm 8 mps 764 mmHg 79%
    20:00 +1°C° 0.1 mm 8 mps 764 mmHg 79%
    21:00 +2°C° 0.1 mm 7 mps 764 mmHg 79%
    22:00 +2°C° 0 mm 7 mps 764 mmHg 79%
    23:00 0°C° 0 mm 7 mps 764 mmHg 79%

    28 January, Saturday

    Time Temperature Precipitation Wind Pressure Humidity
    00:00 +1°C° 0 mm 6 mps 764 mmHg 79%
    01:00 +1°C° 0 mm 6 mps 764 mmHg 78%
    02:00 +1°C° 0 mm 6 mps 764 mmHg 78%
    03:00 +1°C° 0 mm 6 mps 763 mmHg 78%
    04:00 +1°C° 0 mm 6 mps 764 mmHg 78%
    05:00 +1°C° 0 mm 6 mps 764 mmHg 78%
    06:00 +1°C° 0 mm 6 mps 764 mmHg 78%
    07:00 +2°C° 0.1 mm 6 mps 764 mmHg 77%
    08:00 +2°C° 0.1 mm 6 mps 764 mmHg 76%
    09:00 +2°C° 0.1 mm 6 mps 764 mmHg 75%
    10:00 +2°C° 0 mm 6 mps 764 mmHg 74%
    11:00 +3°C° 0 mm 7 mps 763 mmHg 72%
    12:00 +3°C° 0 mm 7 mps 763 mmHg 71%
    13:00 +3°C° 0.1 mm 7 mps 763 mmHg 71%
    14:00 +2°C° 0.1 mm 7 mps 762 mmHg 72%
    15:00 +2°C° 0.1 mm 7 mps 762 mmHg 73%
    16:00 +2°C° 0.1 mm 7 mps 762 mmHg 75%
    17:00 +2°C° 0.1 mm 7 mps 762 mmHg 76%
    18:00 +2°C° 0.1 mm 7 mps 762 mmHg 77%
    19:00 +2°C° 0.8 mm 7 mps 762 mmHg 79%
    20:00 +2°C° 0.8 mm 6 mps 762 mmHg 80%
    21:00 +1°C° 0.8 mm 6 mps 762 mmHg 82%
    22:00 +1°C° 0.7 mm 6 mps 762 mmHg 83%
    23:00 +1°C° 0.7 mm 6 mps 762 mmHg 85%

    29 January, Sunday

    Time Temperature Precipitation Wind Pressure Humidity
    00:00 +2°C° 0.7 mm 6 mps 762 mmHg 86%
    01:00 +2°C° 0.3 mm 6 mps 762 mmHg 87%
    02:00 +2°C° 0.3 mm 5 mps 762 mmHg 88%
    03:00 +2°C° 0.3 mm 5 mps 763 mmHg 88%
    04:00 +1°C° 0.1 mm 5 mps 763 mmHg 89%
    05:00 +1°C° 0.1 mm 4 mps 763 mmHg 89%
    06:00 +1°C° 0.1 mm 4 mps 764 mmHg 90%
    07:00 +1°C° 0 mm 4 mps 764 mmHg 89%
    08:00 +3°C° 0 mm 3 mps 764 mmHg 89%
    09:00 +3°C° 0 mm 3 mps 765 mmHg 88%
    10:00 +3°C° 0 mm 3 mps 765 mmHg 86%
    11:00 +3°C° 0 mm 3 mps 765 mmHg 84%
    12:00 +4°C° 0 mm 3 mps 765 mmHg 81%
    13:00 +4°C° 0 mm 3 mps 765 mmHg 78%
    14:00 +4°C° 0 mm 4 mps 765 mmHg 74%
    15:00 +4°C° 0 mm 4 mps 765 mmHg 70%
    16:00 +3°C° 0 mm 4 mps 765 mmHg 70%
    17:00 +1°C° 0 mm 4 mps 766 mmHg 70%
    18:00 0°C° 0 mm 4 mps 766 mmHg 70%
    19:00 0°C° 0 mm 4 mps 766 mmHg 74%
    20:00 0°C° 0 mm 4 mps 767 mmHg 77%
    21:00 0°C° 0 mm 4 mps 767 mmHg 80%
    22:00 +1°C° 0 mm 3 mps 767 mmHg 82%
    23:00 +1°C° 0 mm 3 mps 767 mmHg 83%
    Show more